User: anonymous   Login
Location: *
(51.0333°S, 178.4667°E)
Time: 23:43:22
(UTC+00:00)
Language:

STARLINK-36 - Orbit

View from above orbital plane
View from above orbital plane
View from above satellite
View from above satellite

Ground track
Ground track

The orbit data is extracted from the following two-line orbital elements,

1 44250U 19029R   20028.58334491 -.00007659  00000-0 -42283-3 0  9996
2 44250  52.9987 129.4003 0001106  85.0570 241.4061 15.12124185 37748
Epoch (UTC): 28 January 2020 14:00:01
Eccentricity: 0.0001106
inclination: 52.9987°
perigee height: 529 km
apogee height: 530 km
right ascension of ascending node: 129.4003°
argument of perigee: 85.0570°
revolutions per day: 15.12124185
mean anomaly at epoch: 241.4061°
orbit number at epoch: 3774

The dashed part of the orbit path shows where the satellite is in the earth's shadow,  

DLR